Find Starlink 37897

NORAD ID: 69531 Int'l Des: 2026-133 Owner: SPXS Country: US Constellation: starlink operational
LEOCIRCULAR

当前视图

正在加载3D地球...

About Starlink 37897

Starlink 37897 (NORAD 69531) is a starlink constellation satellite (v2 mini) launched Jun 11, 2026 by SPXS of US. It operates in LEO, CIRCULAR orbit with a mass of 575.00 kg.

即将过境

Passes for default location (London). Set your location on the main map for personalized predictions.

高度历史

Loading altitude history...

两行轨道根数

1 69531U 26133Z 26208.81769518 .00014506 00000-0 43949-3 0 9990
2 69531 53.1614 124.9881 0001239 105.9880 254.1259 15.34408508 8379
Epoch: Jul 27, 2026 • Age: 13 hours

当前状态

高度 462.3 km
远地点 / 近地点 N/A
速度 7.64 km/s
星下点 15.96°N, 148.29°W
发射日期 Jun 11, 2026
运行时间 0.1 years
类型 internet

技术详情

分类 Payload
质量 575.00 kg
干质量 530.00 kg
总质量 575.00 kg
长度 0.30 m
直径 4.10 m
跨度 29.00 m
形状 Box + pan
制造商 SPXS
平台类型 Starlink V2MO
阶段状态 In Orbit
所有者/国家 SPXS/US

Most Searched